Weather History for Tallahassee, FL

Change the Weather History Date:

Tuesday, September 17, 2013

  Actual Average Record
Temperature  
Mean Temperature 83 °F 78 °F  
Max Temperature 94 °F 88 °F 99 °F (1927)
Min Temperature 72 °F 68 °F 52 °F (2001)
Degree Days  
Heating Degree Days 0    
Month to date heating degree days 0  
Since 1 July heating degree days 0  
Cooling Degree Days 18    
Month to date cooling degree days 299  
Year to date cooling degree days 2335  
Growing Degree Days 32 (Base 50)    
Moisture  
Dew Point 70 °F    
Average Humidity 66    
Maximum Humidity 93    
Minimum Humidity 39    
Precipitation  
Precipitation 0.03 in 0.15 in 2.60 in (1901)
Month to date precipitation 2.25 2.86  
Year to date precipitation 55.54 46.77  
Sea Level Pressure  
Sea Level Pressure 30.05 in    
Wind  
Wind Speed 6 mph (ENE)    
Max Wind Speed 22 mph    
Max Gust Speed 30 mph    
Visibility 10 miles    
Events Rain    
T = Trace of Precipitation, MM = Missing Value Source: NWS Daily Summary

Daily Weather History Graph

Daily Weather History Graph

Search for Another Location

Airport:

Trip Planner

Search our weather history database for the weather conditions in past years. The results will help you decide how hot, cold, wet, or windy it might be!

Date:

Astronomy

Sep. 17, 2013 Rise Set
Actual Time 7:23 AM EDT 7:39 PM EDT
Civil Twilight 6:59 AM EDT 8:04 PM EDT
Nautical Twilight 6:30 AM EDT 8:32 PM EDT
Astronomical Twilight 6:02 AM EDT 9:00 PM EDT
Moon 6:23 PM EDT (9/17) 5:22 AM EDT (9/17)
Length of Visible Light 13h 04m
Length of Day
12h 16m
Waxing Gibbous, 96% of the Moon is Illuminated
Sep 17
Waxing Gibbous
Sep 19
Full
Sep 26
Last Quarter
Oct 4
New
Oct 11
First Quarter

Hourly Weather History & Observations

Time (EDT) Temp. Heat Index Dew Point Humidity Pressure Visibility Wind Dir Wind Speed Gust Speed Precip Events Conditions
12:53 AM 77.0 °F - 72.0 °F 84% 30.05 in 10.0 mi Calm Calm - N/A   Partly Cloudy
1:53 AM 77.0 °F - 72.0 °F 84% 30.04 in 10.0 mi Calm Calm - N/A   Clear
2:53 AM 75.9 °F - 71.1 °F 85% 30.02 in 10.0 mi NNW 5.8 mph 18.4 mph N/A   Clear
3:53 AM 73.9 °F - 71.1 °F 91% 30.03 in 10.0 mi SSE 3.5 mph - N/A   Clear
4:53 AM 73.0 °F - 70.0 °F 90% 30.03 in 10.0 mi Calm Calm - N/A   Clear
5:53 AM 73.0 °F - 70.0 °F 90% 30.03 in 10.0 mi Calm Calm - N/A   Clear
6:53 AM 73.0 °F - 69.1 °F 87% 30.04 in 10.0 mi Calm Calm - N/A   Clear
7:53 AM 73.9 °F - 70.0 °F 87% 30.06 in 10.0 mi Calm Calm - N/A   Clear
8:53 AM 77.0 °F - 72.0 °F 84% 30.08 in 10.0 mi East 4.6 mph - N/A   Clear
9:53 AM 82.0 °F 86.7 °F 72.0 °F 71% 30.09 in 10.0 mi East 4.6 mph - N/A   Clear
10:53 AM 86.0 °F 91.5 °F 71.1 °F 61% 30.09 in 10.0 mi ESE 4.6 mph - N/A   Clear
11:53 AM 89.1 °F 94.1 °F 70.0 °F 53% 30.09 in 10.0 mi ENE 6.9 mph - N/A   Partly Cloudy
12:53 PM 90.0 °F 93.6 °F 68.0 °F 48% 30.08 in 10.0 mi ENE 9.2 mph - N/A   Mostly Cloudy
1:53 PM 91.0 °F 94.3 °F 66.9 °F 45% 30.06 in 10.0 mi ENE 9.2 mph - N/A   Mostly Cloudy
2:53 PM 91.0 °F 94.3 °F 66.9 °F 45% 30.03 in 10.0 mi East 12.7 mph - N/A   Mostly Cloudy
3:53 PM 93.0 °F 96.4 °F 66.9 °F 42% 30.00 in 10.0 mi ENE 11.5 mph 17.3 mph N/A   Mostly Cloudy
4:53 PM 93.0 °F 95.9 °F 66.0 °F 41% 29.99 in 10.0 mi Variable 6.9 mph - N/A   Mostly Cloudy
5:53 PM 93.0 °F 95.0 °F 64.9 °F 39% 29.99 in 10.0 mi NE 8.1 mph - N/A   Partly Cloudy
6:53 PM 84.9 °F 88.8 °F 69.1 °F 59% 30.00 in 10.0 mi NNE 5.8 mph - 0.00 in Rain Light Rain
7:53 PM 82.0 °F 84.9 °F 68.0 °F 62% 30.02 in 10.0 mi ESE 4.6 mph - 0.00 in   Mostly Cloudy
8:53 PM 79.0 °F - 73.0 °F 82% 30.04 in 8.0 mi Variable 5.8 mph - 0.03 in Rain Light Rain
9:53 PM 79.0 °F - 71.1 °F 77% 30.06 in 10.0 mi East 11.5 mph - 0.00 in   Scattered Clouds
10:53 PM 79.0 °F - 69.1 °F 72% 30.08 in 10.0 mi East 11.5 mph - N/A   Partly Cloudy
11:53 PM 78.1 °F - 69.1 °F 74% 30.09 in 10.0 mi East 10.4 mph 18.4 mph N/A   Clear